MDT5 EFSA-ESSA

Flight info

Callsign MDT5
Flight time 0h 56m
Altitude 40000
Route UDDIV DCT RUNGA N872 XILAN
Aircraft CL60/M-SBDE1E2E3FGHIJ1J4J5J7M3RWXYZ/LB1V1D1

Departure

Time 2026-04-22 15:01
Airport Savonlinna Airport (EFSA)

Arrival

Time 2026-04-22 15:57
Airport Stockholm-Arlanda Airport (ESSA)
Time Latitude Longitude Altitude Speed Heading
2026-04-22 14:47 61.94430 28.93202 307 ft 0 kts 255°
2026-04-22 14:58 61.94432 28.93172 307 ft 7 kts 299°
2026-04-22 14:58 61.94464 28.93076 308 ft 0 kts 306°
2026-04-22 14:59 61.94481 28.93045 308 ft 6 kts 256°
2026-04-22 14:59 61.94463 28.93078 308 ft 4 kts 113°
2026-04-22 14:59 61.94445 28.93178 307 ft 9 kts 100°
2026-04-22 14:59 61.94485 28.93333 306 ft 14 kts 36°
2026-04-22 15:00 61.94576 28.93460 305 ft 17 kts 34°
2026-04-22 15:00 61.94600 28.93645 305 ft 15 kts 116°
2026-04-22 15:00 61.94468 28.94038 301 ft 73 kts 126°
2026-04-22 15:00 61.93966 28.95532 308 ft 169 kts 128°
2026-04-22 15:01 61.93247 28.97726 1044 ft 193 kts 119°
2026-04-22 15:01 61.92416 29.00088 2008 ft 213 kts 125°
2026-04-22 15:01 61.91421 29.02474 3023 ft 233 kts 127°
2026-04-22 15:01 61.90229 29.05054 3950 ft 263 kts 137°
2026-04-22 15:02 61.88539 29.06736 5039 ft 286 kts 171°
2026-04-22 15:02 61.86543 29.06450 6216 ft 296 kts 202°
2026-04-22 15:02 61.84745 29.04361 7225 ft 311 kts 221°
2026-04-22 15:02 61.83099 29.01269 8240 ft 318 kts 241°
2026-04-22 15:03 61.82117 28.97283 9601 ft 311 kts 259°
2026-04-22 15:03 61.81381 28.93084 11153 ft 312 kts 259°
2026-04-22 15:03 61.80630 28.88833 12522 ft 317 kts 259°
2026-04-22 15:03 61.79858 28.84484 13807 ft 323 kts 258°
2026-04-22 15:04 61.79072 28.80065 14980 ft 329 kts 259°
2026-04-22 15:04 61.78260 28.75509 16007 ft 338 kts 259°
2026-04-22 15:04 61.77428 28.70850 17014 ft 345 kts 259°
2026-04-22 15:04 61.76575 28.66104 17999 ft 352 kts 260°
2026-04-22 15:05 61.75702 28.61249 18917 ft 358 kts 261°
2026-04-22 15:05 61.74824 28.56373 19656 ft 368 kts 261°
2026-04-22 15:05 61.73902 28.51284 20512 ft 373 kts 262°
2026-04-22 15:05 61.72984 28.46224 21260 ft 379 kts 263°
2026-04-22 15:06 61.72038 28.41030 22014 ft 384 kts 263°
2026-04-22 15:06 61.71076 28.35760 22694 ft 389 kts 264°
2026-04-22 15:06 61.70085 28.30329 23258 ft 399 kts 264°
2026-04-22 15:06 61.69097 28.24955 23997 ft 401 kts 264°
2026-04-22 15:07 61.68079 28.19428 24617 ft 408 kts 264°
2026-04-22 15:07 61.67055 28.13877 25229 ft 413 kts 265°
2026-04-22 15:07 61.66007 28.08228 25874 ft 417 kts 265°
2026-04-22 15:07 61.64948 28.02526 26462 ft 422 kts 265°
2026-04-22 15:08 61.63878 27.96778 26970 ft 428 kts 265°
2026-04-22 15:08 61.62797 27.90987 27462 ft 433 kts 265°
2026-04-22 15:08 61.61680 27.85013 27885 ft 440 kts 265°
2026-04-22 15:08 61.60553 27.79018 28320 ft 446 kts 265°
2026-04-22 15:09 61.59419 27.73028 28947 ft 446 kts 265°
2026-04-22 15:09 61.58282 27.67021 29315 ft 452 kts 265°
2026-04-22 15:09 61.57107 27.60819 29677 ft 458 kts 265°
2026-04-22 15:09 61.55926 27.54618 30105 ft 462 kts 264°
2026-04-22 15:10 61.54731 27.48385 30649 ft 461 kts 264°
2026-04-22 15:10 61.53540 27.42173 30965 ft 466 kts 264°
2026-04-22 15:10 61.52324 27.35844 31305 ft 471 kts 264°
2026-04-22 15:10 61.51110 27.29554 31713 ft 472 kts 262°
2026-04-22 15:11 61.49876 27.23194 32107 ft 474 kts 262°
2026-04-22 15:11 61.48637 27.16812 32445 ft 476 kts 262°
2026-04-22 15:11 61.47389 27.10425 32946 ft 473 kts 262°
2026-04-22 15:11 61.46159 27.04158 33380 ft 471 kts 262°
2026-04-22 15:12 61.44910 26.97788 33720 ft 472 kts 262°
2026-04-22 15:12 61.43669 26.91489 34161 ft 470 kts 261°
2026-04-22 15:12 61.42444 26.85293 34583 ft 467 kts 261°
2026-04-22 15:12 61.41201 26.79025 35018 ft 465 kts 261°
2026-04-22 15:13 61.39987 26.72905 35314 ft 465 kts 260°
2026-04-22 15:13 61.38736 26.66624 35656 ft 465 kts 260°
2026-04-22 15:13 61.37501 26.60424 35841 ft 469 kts 260°
2026-04-22 15:13 61.36261 26.54237 36200 ft 467 kts 259°
2026-04-22 15:14 61.34999 26.47964 36538 ft 466 kts 259°
2026-04-22 15:14 61.33755 26.41788 36801 ft 466 kts 259°
2026-04-22 15:14 61.31242 26.29359 37013 ft 470 kts 257°
2026-04-22 15:15 61.29956 26.23030 37234 ft 472 kts 257°
2026-04-22 15:15 61.28681 26.16777 37553 ft 471 kts 257°
2026-04-22 15:15 61.27409 26.10561 37777 ft 472 kts 257°
2026-04-22 15:15 61.26128 26.04324 38068 ft 471 kts 257°
2026-04-22 15:16 61.24840 25.98067 38327 ft 471 kts 257°
2026-04-22 15:16 61.23561 25.91876 38590 ft 470 kts 257°
2026-04-22 15:16 61.22273 25.85660 38890 ft 468 kts 256°
2026-04-22 15:16 61.21012 25.79592 39100 ft 468 kts 256°
2026-04-22 15:17 61.19716 25.73365 39282 ft 468 kts 256°
2026-04-22 15:17 61.18420 25.67162 39472 ft 468 kts 256°
2026-04-22 15:17 61.17131 25.61011 39630 ft 469 kts 256°
2026-04-22 15:17 61.15831 25.54823 39732 ft 471 kts 256°
2026-04-22 15:18 61.13213 25.42400 39711 ft 478 kts 256°
2026-04-22 15:18 61.10527 25.29754 39721 ft 481 kts 255°
2026-04-22 15:19 61.07821 25.17089 39719 ft 483 kts 255°
2026-04-22 15:19 61.05121 25.04538 39725 ft 484 kts 255°
2026-04-22 15:20 61.02393 24.91933 39719 ft 483 kts 255°
2026-04-22 15:20 60.99650 24.79330 39742 ft 482 kts 255°
2026-04-22 15:21 60.96909 24.66808 39727 ft 483 kts 256°
2026-04-22 15:21 60.94139 24.54229 39721 ft 483 kts 256°
2026-04-22 15:22 60.91389 24.41821 39715 ft 482 kts 256°
2026-04-22 15:22 60.88616 24.29382 39726 ft 480 kts 255°
2026-04-22 15:23 60.85840 24.16997 39758 ft 481 kts 255°
2026-04-22 15:23 60.83038 24.04561 39752 ft 482 kts 255°
2026-04-22 15:24 60.80228 23.92171 39766 ft 484 kts 255°
2026-04-22 15:24 60.77385 23.79708 39772 ft 482 kts 255°
2026-04-22 15:25 60.74542 23.67315 39765 ft 482 kts 255°
2026-04-22 15:25 60.71695 23.54988 39794 ft 480 kts 255°
2026-04-22 15:26 60.68856 23.42754 39751 ft 479 kts 255°
2026-04-22 15:26 60.66004 23.30536 39781 ft 479 kts 254°
2026-04-22 15:27 60.63152 23.18386 39790 ft 479 kts 254°
2026-04-22 15:27 60.60272 23.06181 39785 ft 480 kts 254°
2026-04-22 15:28 60.57383 22.94012 39806 ft 479 kts 254°
2026-04-22 15:28 60.54498 22.81925 39789 ft 480 kts 253°
2026-04-22 15:29 60.51599 22.69848 39816 ft 479 kts 253°
2026-04-22 15:30 60.47209 22.51688 39842 ft 478 kts 253°
2026-04-22 15:30 60.44294 22.39710 39832 ft 478 kts 253°
2026-04-22 15:31 60.41354 22.27691 39825 ft 479 kts 252°
2026-04-22 15:31 60.38411 22.15728 39841 ft 480 kts 252°
2026-04-22 15:32 60.35440 22.03719 39864 ft 480 kts 252°
2026-04-22 15:32 60.32461 21.91743 39872 ft 480 kts 252°
2026-04-22 15:33 60.29448 21.79698 39868 ft 480 kts 252°
2026-04-22 15:33 60.26442 21.67737 39490 ft 484 kts 251°
2026-04-22 15:33 60.24936 21.61781 38920 ft 479 kts 251°
2026-04-22 15:34 60.23424 21.55816 38355 ft 476 kts 251°
2026-04-22 15:34 60.21930 21.49931 37776 ft 476 kts 251°
2026-04-22 15:34 60.20444 21.44091 37166 ft 476 kts 251°
2026-04-22 15:34 60.18935 21.38180 36552 ft 477 kts 251°
2026-04-22 15:35 60.17429 21.32286 36246 ft 480 kts 250°
2026-04-22 15:35 60.15893 21.26285 35186 ft 484 kts 250°
2026-04-22 15:35 60.14364 21.20357 34692 ft 482 kts 250°
2026-04-22 15:35 60.12830 21.14400 34032 ft 483 kts 250°
2026-04-22 15:36 60.11278 21.08394 33333 ft 489 kts 250°
2026-04-22 15:36 60.09735 21.02443 32749 ft 488 kts 250°
2026-04-22 15:36 60.08164 20.96400 32050 ft 492 kts 250°
2026-04-22 15:36 60.06589 20.90356 31454 ft 493 kts 249°
2026-04-22 15:37 60.05006 20.84300 30768 ft 496 kts 249°
2026-04-22 15:37 60.03418 20.78239 30155 ft 498 kts 249°
2026-04-22 15:37 60.01820 20.72161 29483 ft 499 kts 249°
2026-04-22 15:37 60.00208 20.66045 28832 ft 499 kts 249°
2026-04-22 15:38 59.98589 20.59927 28172 ft 495 kts 249°
2026-04-22 15:38 59.95433 20.48054 26881 ft 481 kts 249°
2026-04-22 15:38 59.93892 20.42275 26258 ft 474 kts 249°
2026-04-22 15:39 59.92351 20.36515 25637 ft 468 kts 249°
2026-04-22 15:39 59.90831 20.30843 25012 ft 461 kts 248°
2026-04-22 15:39 59.89335 20.25276 24428 ft 457 kts 248°
2026-04-22 15:39 59.87851 20.19762 23815 ft 451 kts 248°
2026-04-22 15:40 59.86379 20.14308 23221 ft 447 kts 248°
2026-04-22 15:40 59.84937 20.08979 22648 ft 442 kts 248°
2026-04-22 15:40 59.83474 20.03581 22055 ft 439 kts 248°
2026-04-22 15:40 59.82041 19.98306 21490 ft 436 kts 248°
2026-04-22 15:41 59.80601 19.93017 20897 ft 432 kts 248°
2026-04-22 15:41 59.79195 19.87869 20347 ft 428 kts 248°
2026-04-22 15:41 59.77779 19.82692 19770 ft 425 kts 248°
2026-04-22 15:41 59.76378 19.77581 19219 ft 421 kts 249°
2026-04-22 15:42 59.75174 19.72406 18510 ft 407 kts 262°
2026-04-22 15:42 59.74601 19.67040 18018 ft 396 kts 267°
2026-04-22 15:42 59.74081 19.61771 17512 ft 394 kts 267°
2026-04-22 15:42 59.73549 19.56493 16992 ft 390 kts 266°
2026-04-22 15:43 59.73022 19.51284 16479 ft 385 kts 267°
2026-04-22 15:43 59.72499 19.46126 15989 ft 379 kts 267°
2026-04-22 15:43 59.71982 19.41054 15492 ft 373 kts 268°
2026-04-22 15:43 59.71474 19.36094 14992 ft 367 kts 268°
2026-04-22 15:44 59.70968 19.31165 14509 ft 361 kts 267°
2026-04-22 15:44 59.70471 19.26341 14041 ft 356 kts 267°
2026-04-22 15:44 59.69981 19.21602 13584 ft 349 kts 267°
2026-04-22 15:44 59.69494 19.16915 13112 ft 343 kts 267°
2026-04-22 15:45 59.69022 19.12384 12676 ft 335 kts 267°
2026-04-22 15:45 59.68559 19.07957 12230 ft 328 kts 267°
2026-04-22 15:45 59.68099 19.03572 11801 ft 321 kts 267°
2026-04-22 15:45 59.67648 18.99288 11379 ft 315 kts 267°
2026-04-22 15:46 59.67213 18.95157 10968 ft 308 kts 267°
2026-04-22 15:46 59.66775 18.91023 10558 ft 302 kts 267°
2026-04-22 15:46 59.66350 18.87018 10144 ft 295 kts 267°
2026-04-22 15:46 59.65935 18.83128 9758 ft 288 kts 267°
2026-04-22 15:47 59.65526 18.79286 9373 ft 284 kts 267°
2026-04-22 15:47 59.65129 18.75564 9011 ft 277 kts 267°
2026-04-22 15:47 59.64732 18.71868 8644 ft 271 kts 267°
2026-04-22 15:47 59.64342 18.68241 8287 ft 268 kts 267°
2026-04-22 15:48 59.63961 18.64693 7940 ft 264 kts 267°
2026-04-22 15:48 59.63580 18.61166 7596 ft 260 kts 267°
2026-04-22 15:48 59.63207 18.57725 7255 ft 255 kts 266°
2026-04-22 15:48 59.62838 18.54322 6916 ft 252 kts 266°
2026-04-22 15:49 59.62474 18.50988 6586 ft 247 kts 266°
2026-04-22 15:49 59.62117 18.47716 6258 ft 242 kts 266°
2026-04-22 15:49 59.61765 18.44503 5947 ft 238 kts 266°
2026-04-22 15:49 59.61420 18.41363 5629 ft 234 kts 266°
2026-04-22 15:50 59.61076 18.38231 5331 ft 229 kts 266°
2026-04-22 15:50 59.60743 18.35203 5029 ft 227 kts 266°
2026-04-22 15:50 59.60408 18.32175 4725 ft 223 kts 265°
2026-04-22 15:50 59.60072 18.29190 4431 ft 222 kts 263°
2026-04-22 15:51 59.59589 18.26297 4131 ft 223 kts 257°
2026-04-22 15:51 59.59038 18.23434 3837 ft 220 kts 257°
2026-04-22 15:51 59.58504 18.20645 3543 ft 217 kts 257°
2026-04-22 15:51 59.57979 18.17905 3267 ft 214 kts 257°
2026-04-22 15:52 59.57460 18.15199 2984 ft 211 kts 257°
2026-04-22 15:52 59.56945 18.12514 2708 ft 208 kts 257°
2026-04-22 15:52 59.56435 18.09865 2507 ft 198 kts 257°
2026-04-22 15:52 59.55972 18.07444 2509 ft 184 kts 258°
2026-04-22 15:53 59.55535 18.05123 2467 ft 180 kts 257°
2026-04-22 15:53 59.55096 18.02778 2260 ft 183 kts 258°
2026-04-22 15:53 59.54874 18.00447 2055 ft 165 kts 276°
2026-04-22 15:53 59.55031 17.98307 1845 ft 149 kts 294°
2026-04-22 15:54 59.55463 17.96543 1670 ft 140 kts 308°
2026-04-22 15:54 59.56108 17.95128 1483 ft 139 kts 321°
2026-04-22 15:54 59.56865 17.94212 1319 ft 117 kts 335°
2026-04-22 15:54 59.57598 17.93758 1173 ft 109 kts 344°
2026-04-22 15:55 59.58353 17.93599 995 ft 109 kts 355°
2026-04-22 15:55 59.59121 17.93773 865 ft 113 kts
2026-04-22 15:55 59.59899 17.94072 707 ft 114 kts
2026-04-22 15:55 59.60672 17.94359 558 ft 114 kts
2026-04-22 15:56 59.61466 17.94646 457 ft 116 kts
2026-04-22 15:56 59.62264 17.94945 273 ft 117 kts
2026-04-22 15:56 59.63058 17.95222 138 ft 112 kts
2026-04-22 15:56 59.63742 17.95462 116 ft 84 kts 11°
2026-04-22 15:57 59.64106 17.95530 110 ft 40 kts 349°
2026-04-22 15:57 59.64323 17.95392 107 ft 24 kts 339°
2026-04-22 15:57 59.64430 17.95328 105 ft 8 kts 356°
2026-04-22 15:57 59.64452 17.95326 105 ft 7 kts
2026-04-22 15:58 59.64531 17.95326 105 ft 11 kts 326°
2026-04-22 15:58 59.64532 17.95165 103 ft 14 kts 237°
2026-04-22 15:58 59.64471 17.94971 102 ft 18 kts 238°
2026-04-22 15:58 59.64390 17.94725 98 ft 23 kts 237°
2026-04-22 15:59 59.64297 17.94430 94 ft 27 kts 238°
2026-04-22 15:59 59.64194 17.94107 94 ft 23 kts 236°
2026-04-22 15:59 59.64106 17.93836 98 ft 23 kts 237°
2026-04-22 15:59 59.64020 17.93561 104 ft 23 kts 240°
2026-04-22 16:00 59.63998 17.93268 107 ft 22 kts 290°
2026-04-22 16:00 59.64067 17.92994 110 ft 22 kts 297°
2026-04-22 16:00 59.64141 17.92716 112 ft 23 kts 296°
2026-04-22 16:00 59.64218 17.92429 112 ft 24 kts 297°
2026-04-22 16:01 59.64284 17.92168 111 ft 12 kts 296°
2026-04-22 16:01 59.64249 17.92038 110 ft 8 kts 188°
2026-04-22 16:01 59.64189 17.92017 110 ft 10 kts 191°
2026-04-22 16:01 59.64107 17.92016 110 ft 13 kts 172°
2026-04-22 16:02 59.64007 17.91976 110 ft 16 kts 191°
2026-04-22 16:02 59.63955 17.91952 110 ft 2 kts 239°
2026-04-22 16:02 59.63955 17.91926 110 ft 1 kts 276°
2026-04-22 16:02 59.63956 17.91915 110 ft 0 kts 300°
2026-04-22 16:03 59.63959 17.91911 110 ft 0 kts 328°